KLM1960 LTFM-EHAM

Flight info

Callsign KLM1960
Flight time N/A
Altitude 36000
Route VADEN N618 BAKLO DCT XANEX DCT BESLI DCT UTEKA DCT POZ DCT PA DCT KOTUS DCT BABIT/N0456F380 DCT SASAL DCT DEXIT DCT MAPOX DCT HMM DCT NORKU
Aircraft A21N/M-SDE2E3FGHIRWXY/LB1

Departure

Time 2026-02-18 13:33
Airport İstanbul Airport (LTFM)

Arrival

Time N/A
Airport Amsterdam Airport Schiphol (EHAM)
Time Latitude Longitude Altitude Speed Heading
2026-02-18 13:03 41.26309 28.73610 334 ft 0 kts 71°
2026-02-18 13:22 41.26306 28.73600 336 ft 3 kts 71°
2026-02-18 13:22 41.26300 28.73575 336 ft 3 kts 71°
2026-02-18 13:22 41.26293 28.73550 335 ft 3 kts 74°
2026-02-18 13:22 41.26290 28.73525 334 ft 3 kts 95°
2026-02-18 13:23 41.26295 28.73501 335 ft 3 kts 126°
2026-02-18 13:23 41.26307 28.73487 334 ft 2 kts 159°
2026-02-18 13:23 41.26318 28.73482 335 ft 3 kts 161°
2026-02-18 13:23 41.26329 28.73476 335 ft 0 kts 161°
2026-02-18 13:25 41.26319 28.73481 336 ft 3 kts 161°
2026-02-18 13:26 41.26291 28.73494 339 ft 5 kts 161°
2026-02-18 13:26 41.26246 28.73497 338 ft 8 kts 210°
2026-02-18 13:26 41.26224 28.73420 335 ft 11 kts 266°
2026-02-18 13:26 41.26219 28.73309 336 ft 13 kts 266°
2026-02-18 13:27 41.26216 28.73177 338 ft 15 kts 268°
2026-02-18 13:27 41.26132 28.73122 338 ft 17 kts 179°
2026-02-18 13:27 41.26009 28.73127 336 ft 19 kts 178°
2026-02-18 13:27 41.25875 28.73129 338 ft 20 kts 179°
2026-02-18 13:28 41.25730 28.73132 336 ft 21 kts 179°
2026-02-18 13:28 41.25576 28.73134 335 ft 23 kts 179°
2026-02-18 13:28 41.25415 28.73138 337 ft 18 kts 179°
2026-02-18 13:28 41.25336 28.73066 337 ft 16 kts 281°
2026-02-18 13:29 41.25336 28.72732 338 ft 20 kts 268°
2026-02-18 13:29 41.25334 28.72544 336 ft 21 kts 270°
2026-02-18 13:29 41.25334 28.72370 338 ft 15 kts 271°
2026-02-18 13:30 41.25375 28.72239 338 ft 17 kts 324°
2026-02-18 13:30 41.25492 28.72213 334 ft 18 kts 358°
2026-02-18 13:30 41.25625 28.72208 338 ft 20 kts 359°
2026-02-18 13:30 41.25768 28.72211 339 ft 21 kts
2026-02-18 13:31 41.25918 28.72242 338 ft 23 kts
2026-02-18 13:31 41.26081 28.72268 339 ft 24 kts
2026-02-18 13:31 41.26202 28.72308 338 ft 13 kts 64°
2026-02-18 13:31 41.26209 28.72396 337 ft 10 kts 87°
2026-02-18 13:32 41.26212 28.72493 339 ft 5 kts 87°
2026-02-18 13:32 41.26247 28.72524 339 ft 8 kts
2026-02-18 13:32 41.26322 28.72522 336 ft 19 kts 359°
2026-02-18 13:32 41.26638 28.72515 339 ft 76 kts 359°
2026-02-18 13:33 41.28351 28.72482 394 ft 156 kts 357°
2026-02-18 13:33 41.29408 28.72527 924 ft 152 kts 357°
2026-02-18 13:33 41.30475 28.72549 1444 ft 155 kts 353°
2026-02-18 13:34 41.31577 28.72484 1902 ft 164 kts 352°
2026-02-18 13:34 41.32778 28.72480 2399 ft 180 kts 355°
2026-02-18 13:34 41.34092 28.72491 2919 ft 198 kts 355°
2026-02-18 13:34 41.35546 28.72504 3426 ft 217 kts 356°
2026-02-18 13:35 41.37069 28.72371 4226 ft 220 kts 344°
2026-02-18 13:35 41.38449 28.71544 5115 ft 220 kts 323°
2026-02-18 13:35 41.39467 28.70020 5841 ft 229 kts 306°
2026-02-18 13:35 41.40284 28.68171 6631 ft 234 kts 304°
2026-02-18 13:36 41.41106 28.66280 7401 ft 238 kts 304°
2026-02-18 13:36 41.41953 28.64359 8177 ft 243 kts 304°
2026-02-18 13:36 41.42824 28.62408 8969 ft 247 kts 303°
2026-02-18 13:36 41.43715 28.60416 9761 ft 252 kts 303°
2026-02-18 13:37 41.45615 28.56189 10599 ft 286 kts 302°
2026-02-18 13:37 41.46674 28.53835 10833 ft 306 kts 302°
2026-02-18 13:37 41.47798 28.51334 11064 ft 324 kts 302°
2026-02-18 13:38 41.48985 28.48682 11269 ft 341 kts 302°
2026-02-18 13:38 41.50225 28.45911 11449 ft 355 kts 302°
2026-02-18 13:38 41.51506 28.43052 11796 ft 362 kts 302°
2026-02-18 13:38 41.52802 28.40161 12215 ft 366 kts 302°
2026-02-18 13:39 41.54118 28.37226 12565 ft 370 kts 301°
2026-02-18 13:39 41.55439 28.34269 12971 ft 373 kts 301°
2026-02-18 13:39 41.56773 28.31278 13403 ft 376 kts 301°
2026-02-18 13:39 41.58080 28.28224 13789 ft 379 kts 298°
2026-02-18 13:40 41.59283 28.25078 14103 ft 382 kts 297°
2026-02-18 13:40 41.60480 28.21907 14426 ft 383 kts 297°
2026-02-18 13:40 41.61682 28.18720 14784 ft 386 kts 297°
2026-02-18 13:40 41.62892 28.15507 15142 ft 388 kts 297°
2026-02-18 13:41 41.65329 28.09013 15766 ft 393 kts 297°
2026-02-18 13:41 41.66557 28.05741 16010 ft 394 kts 297°
2026-02-18 13:41 41.67851 28.02505 16194 ft 396 kts 301°
2026-02-18 13:42 41.69330 27.99389 16390 ft 397 kts 303°
2026-02-18 13:42 41.70838 27.96274 16565 ft 399 kts 303°
2026-02-18 13:42 41.72346 27.93153 16712 ft 400 kts 303°
2026-02-18 13:42 41.73857 27.90018 16850 ft 401 kts 303°
2026-02-18 13:43 41.75369 27.86872 16982 ft 402 kts 303°
2026-02-18 13:43 41.76883 27.83722 17110 ft 403 kts 303°
2026-02-18 13:43 41.78404 27.80561 17215 ft 404 kts 303°
2026-02-18 13:43 41.79928 27.77398 17310 ft 404 kts 303°
2026-02-18 13:44 41.81465 27.74240 17378 ft 405 kts 303°
2026-02-18 13:44 41.82999 27.71074 17425 ft 405 kts 303°
2026-02-18 13:44 41.84527 27.67911 17451 ft 405 kts 303°
2026-02-18 13:44 41.86054 27.64733 17495 ft 406 kts 303°
2026-02-18 13:45 41.89108 27.58362 17579 ft 406 kts 303°
2026-02-18 13:45 41.90627 27.55176 17666 ft 405 kts 303°
2026-02-18 13:45 41.92140 27.52005 17885 ft 400 kts 303°
2026-02-18 13:46 41.93633 27.48868 18125 ft 396 kts 303°
2026-02-18 13:46 41.95112 27.45765 18347 ft 394 kts 303°
2026-02-18 13:46 41.96586 27.42663 18586 ft 392 kts 303°
2026-02-18 13:46 41.98047 27.39592 18824 ft 388 kts 303°
2026-02-18 13:47 41.99492 27.36544 19068 ft 386 kts 303°
2026-02-18 13:47 42.00932 27.33498 19178 ft 387 kts 303°
2026-02-18 13:47 42.02380 27.30440 19232 ft 388 kts 303°
2026-02-18 13:47 42.03835 27.27373 19254 ft 390 kts 303°